Flag for U.S.A. Weather past 2 weeks in Minot, North Dakota, U.S.A.

Now
75 °F

Sunny.


Feels Like: 77 °F
Forecast: 57 / 82 °F
Wind: 14 mph from Northwest

Location: Minot International Airport

Current Time: Jul 30, 2015 at 8:34:53 PM

Latest Report: Jul 30, 2015 at 7:54 PM


Visibility: 10 mi

Pressure: 30.09 "Hg

Humidity: 37%

Dew point: 47 °F

Location of MinotLocation

Historic Weather in Minot — Graph

°F

Minot temperature yesterday

Maximum temperature yesterday: 82 °F (at 4:54 PM)
Minimum temperature yesterday: 61 °F (at 5:54 AM)
Average temperature yesterday: 70 °F

Past Weeks' High & Low Weather Summary

 TemperatureHumidityPressure
High91 °F (Jul 23, 3:54 PM)94% (Jul 16, 12:54 AM)30.10 "Hg (Jul 16, 12:54 AM)
Low53 °F (Jul 21, 5:54 AM)28% (Jul 19, 1:54 PM)29.47 "Hg (Jul 28, 6:54 PM)
Average71 °F63%29.79 "Hg
* Reported Jul 15 6:54 PM — Jul 30 6:54 PM, Minot, Weather by CustomWeather, © 2015

Note: Actual official high and low records may vary slightly from our data, if they occured in-between our weather recording intervals... More about our weather records

Advertising

Minot weather history for previous 24 hours

 ConditionsComfort  
Time TempWeatherWind HumidityBarometerVisibility
6:54 PM
Thu, Jul 30
78 °FSunny.17 mph31%30.09 "Hg10 mi
5:54 PM80 °FSunny.21 mph29%30.09 "Hg10 mi
4:54 PM81 °FSunny.18 mph30%30.09 "Hg10 mi
3:54 PM81 °FSunny.20 mph32%30.09 "Hg10 mi
2:54 PM82 °FSunny.21 mph33%30.10 "Hg10 mi
1:54 PM81 °FSunny.24 mph30%30.10 "Hg10 mi
12:54 PM80 °FSunny.18 mph34%30.10 "Hg10 mi
11:54 AM76 °FSunny.14 mph43%30.10 "Hg10 mi
10:54 AM74 °FSunny.16 mph45%30.10 "Hg10 mi
9:54 AM72 °FSunny.17 mph48%30.10 "Hg10 mi
8:54 AM69 °FSunny.15 mph53%30.09 "Hg10 mi
7:54 AM62 °FPassing clouds.10 mph70%30.07 "Hg10 mi
6:54 AM60 °FMostly cloudy.9 mph78%30.06 "Hg10 mi
5:54 AM61 °FOvercast.8 mph72%30.06 "Hg10 mi
4:54 AM62 °FPassing clouds.10 mph67%30.05 "Hg10 mi
3:54 AM63 °FClear.14 mph65%30.05 "Hg10 mi
2:54 AM61 °FPassing clouds.8 mph70%30.03 "Hg10 mi
1:54 AM59 °FClear.8 mph78%30.03 "Hg10 mi
12:54 AM60 °FClear.9 mph75%30.02 "Hg10 mi
11:54 PM
Wed, Jul 29
62 °FClear.8 mph73%30.02 "Hg10 mi
10:54 PM64 °FClear.8 mph68%30.02 "Hg10 mi
9:54 PM69 °FSunny.10 mph57%30.00 "Hg10 mi
8:54 PM73 °FSunny.13 mph48%29.98 "Hg10 mi
Weather by CustomWeather, © 2015

See weather overviewHow to use our weather pages